Dewpoint
53 54 54 54 54 54 54 55 55 55 55 55 55 55 55 56 55 56 56 56 57 57 56 57 56 55 55 55 55 55 56 53 51 50 50 44 52 56 61 62 65 65 65 63 62 59 59 59 58 56 59 61 60 60 62 64 65 68 62 59 57 57 54 55 53 51 52 53 56 59 59 59 60 62 62 63 62 64 62 60 62 64 64 64 65 67 67 67
54 54 53 53 54 54 55 54 55 55 55 55 55 55 55 56 56 56 56 56 57 57 57 56 55 56 55 55 55 55 55 53 50 49 46 47 57 61 62 62 67 66 64 58 59 57 56 55 56 54 54 57 58 59 62 62 64 63 59 57 56 55 56 57 54 54 54 53 55 58 59 58 58 60 61 60 60 61 60 59 62 62 63 64 66 67 67 67
53 54 54 54 54 54 54 55 55 55 55 55 55 55 55 55 56 55 56 56 56 56 56 56 56 55 55 55 56 56 54 50 50 47 44 61 58 61 63 63 68 70 51 58 58 55 52 53 54 53 51 51 55 58 61 60 62 62 58 56 57 57 57 58 55 53 55 54 55 57 58 58 59 59 60 58 60 60 59 58 61 62 63 64 65 66 66 66
53 54 54 54 54 55 55 55 55 55 55 55 55 55 55 55 56 56 56 56 56 56 56 56 56 55 55 55 56 55 53 51 42 40 41 59 65 61 64 65 65 69 50 43 57 52 49 51 51 51 49 48 49 56 59 60 61 61 59 56 56 57 56 56 56 55 54 54 55 56 57 57 58 58 59 57 59 59 59 59 60 62 63 64 65 65 65 65
54 54 55 55 55 55 54 55 55 55 55 55 55 55 55 55 55 56 55 56 56 56 56 56 55 55 55 57 57 53 47 29 26 41 41 71 69 65 64 66 67 63 45 28 49 52 49 49 49 48 48 47 49 51 53 59 60 56 59 58 57 57 55 56 58 56 53 55 56 57 55 56 57 57 57 57 57 57 58 59 61 63 64 64 64 64 65 65
54 55 54 55 55 55 55 55 55 55 55 55 55 55 55 55 55 55 55 55 55 56 56 56 55 55 55 57 54 53 42 25 31 36 78 70 73 67 65 66 69 52 33 31 48 50 45 47 47 47 47 48 48 49 52 53 58 56 56 57 58 57 55 56 54 60 53 55 57 55 55 55 55 55 56 55 58 58 59 59 62 63 64 64 65 64 64 65
54 54 55 54 55 55 55 55 55 55 55 55 55 55 55 55 54 55 55 55 55 56 55 56 55 55 56 57 53 52 42 32 36 35 56 68 73 69 65 64 68 44 34 28 42 48 46 44 46 46 46 47 49 49 50 53 54 55 54 55 53 55 56 56 53 55 53 54 54 55 56 54 53 51 55 54 56 58 59 59 63 64 64 65 64 64 64 65
54 54 55 55 55 55 55 55 55 55 55 55 55 55 55 55 54 55 55 55 55 55 55 55 55 55 57 52 51 46 37 30 31 33 49 71 73 69 63 56 59 46 37 29 36 47 45 43 43 45 46 46 45 49 50 49 51 52 53 53 53 51 52 54 53 53 52 53 53 53 53 53 52 52 52 52 55 58 58 60 63 64 64 64 64 64 65 65
54 54 54 54 54 54 55 55 55 55 55 55 55 55 55 55 55 55 55 55 55 55 55 55 55 57 57 53 50 38 32 40 39 37 54 66 66 62 55 54 54 44 38 33 33 43 45 42 43 45 45 45 45 46 48 48 47 48 50 52 51 49 50 50 51 53 55 52 51 50 50 51 52 52 50 53 56 58 59 61 63 63 63 63 64 64 65 65
54 54 54 54 54 55 54 54 55 55 55 55 54 54 54 54 54 55 55 55 55 55 55 55 56 56 54 52 48 26 26 38 47 55 65 64 61 56 54 55 51 42 38 37 33 37 44 42 41 44 35 40 44 43 45 46 46 48 47 47 47 47 47 50 51 51 53 51 51 49 50 50 51 50 47 57 58 59 59 60 62 63 63 63 64 64 65 65
54 54 54 54 54 54 54 54 55 55 55 54 54 54 54 55 55 54 55 55 55 55 55 56 57 55 50 51 37 25 29 39 42 52 60 59 56 54 53 55 48 40 37 36 34 34 41 41 41 41 38 33 40 42 42 43 45 44 44 45 45 45 46 47 52 51 51 50 51 51 52 50 50 49 47 57 58 59 58 59 61 62 63 63 64 64 65 65
53 54 54 54 54 54 54 55 54 54 54 53 54 54 54 54 54 54 55 55 56 56 55 57 58 55 53 49 44 33 37 41 41 40 44 56 54 53 53 53 46 40 37 35 34 33 36 38 39 37 36 36 31 37 36 41 41 42 44 42 43 44 44 43 47 52 51 50 51 51 50 51 49 48 51 58 58 58 58 59 60 61 62 63 63 64 65 65
54 53 53 54 54 54 54 54 54 54 53 53 54 54 54 54 53 54 56 56 56 55 56 58 57 55 49 34 40 41 41 40 41 43 43 45 51 52 53 53 45 41 37 34 33 33 33 33 38 35 36 35 35 33 36 41 38 40 40 41 41 42 42 43 45 50 51 50 51 48 45 46 48 48 57 58 58 58 58 58 59 60 61 62 62 63 64 64
53 54 54 53 54 54 54 54 54 53 53 53 53 52 52 53 53 55 58 58 55 57 58 59 56 53 50 37 39 47 46 45 45 45 43 43 37 37 49 53 49 42 38 33 33 34 33 33 32 34 31 30 29 32 30 32 38 39 40 41 40 41 41 42 47 50 50 51 49 48 44 44 46 49 58 58 58 57 57 58 58 59 60 61 61 62 63 64
53 54 54 53 53 54 54 54 53 53 53 53 52 52 52 52 55 58 59 57 57 59 59 58 55 52 47 43 47 49 59 57 53 49 46 40 37 39 44 51 49 45 40 37 35 34 33 32 32 30 29 32 30 29 29 32 36 34 32 34 36 40 40 38 45 50 49 50 49 47 45 45 46 50 58 58 58 58 57 57 57 58 59 60 61 62 62 63
53 54 53 53 53 54 54 53 52 53 53 52 51 51 53 53 57 59 57 57 58 59 57 54 54 53 51 43 40 49 53 46 46 50 50 43 38 36 42 49 49 46 42 37 35 33 32 31 29 29 29 30 30 30 30 31 32 34 33 33 33 34 37 34 39 49 49 49 50 47 45 48 48 52 58 58 58 57 57 57 57 57 58 58 59 61 62 62
53 53 53 53 54 54 53 52 52 53 51 51 50 51 53 56 60 59 59 59 58 58 55 53 53 54 40 41 46 43 39 43 44 30 32 45 41 38 43 45 45 44 41 38 36 33 31 28 31 29 30 28 28 31 31 31 31 32 33 32 32 32 35 33 38 48 49 49 48 47 44 45 48 54 57 58 58 57 57 57 57 57 58 58 58 60 61 61
53 53 53 54 54 53 53 52 52 52 51 50 50 50 50 54 60 59 59 58 58 57 56 54 53 50 41 44 38 40 36 28 20 17 15 32 43 40 39 40 40 42 39 36 35 30 31 27 28 23 26 27 28 30 29 29 31 32 32 33 31 33 33 33 37 47 48 48 47 47 45 44 48 55 56 57 58 57 57 57 57 57 57 58 58 59 60 61
54 53 53 54 53 52 52 52 52 51 50 51 52 53 55 57 56 53 49 54 29 25 16 46 47 24 7 21 29 27 26 22 18 16 16 39 43 41 39 38 37 37 34 33 32 30 30 33 30 29 24 26 27 28 29 31 32 32 31 31 32 31 31 32 34 39 48 47 46 46 45 44 46 54 55 56 57 57 57 57 57 57 57 57 58 58 59 60
53 53 54 53 52 52 52 52 51 50 50 48 45 44 32 23 20 20 39 25 18 16 12 13 45 37 34 31 28 27 22 19 17 24 26 31 41 39 37 36 33 35 33 31 32 30 29 26 26 24 22 24 28 30 31 31 30 32 32 31 31 31 31 32 33 35 48 46 45 46 46 44 44 52 55 56 56 57 57 57 57 57 57 57 57 58 58 59
53 53 53 52 51 51 52 51 51 50 50 47 45 25 22 23 20 15 21 20 20 20 18 18 17 20 21 22 21 19 17 17 21 19 18 23 23 37 35 34 31 31 32 32 32 32 28 25 25 23 22 26 30 32 32 30 29 28 27 30 30 31 30 32 32 35 42 46 45 45 45 44 44 48 54 55 55 55 56 56 57 57 57 57 57 58 58 59
53 53 52 51 51 51 51 51 50 50 50 47 35 25 25 25 24 23 22 19 19 21 20 20 21 19 20 19 19 20 21 18 19 19 20 19 26 33 32 32 31 29 31 33 31 31 28 24 22 23 27 31 32 31 30 29 28 26 26 26 26 27 31 30 31 33 35 42 40 42 42 42 44 46 53 54 55 55 56 56 57 57 57 57 58 58 58 58
53 53 52 51 51 50 50 50 50 50 43 41 39 25 26 28 29 26 22 21 20 22 21 23 22 20 20 22 22 22 21 20 19 20 20 22 28 32 31 30 30 29 29 31 30 29 29 29 26 25 30 30 30 29 29 27 27 27 24 25 25 27 27 27 30 30 32 36 36 39 39 41 43 46 50 54 55 55 56 56 56 57 57 57 57 58 58 58
53 53 52 51 50 50 51 50 48 42 39 41 40 29 29 30 26 24 21 19 18 21 24 24 26 23 21 23 25 22 21 22 22 19 22 21 25 30 29 30 28 28 27 29 31 29 29 29 30 30 30 30 29 29 28 27 27 26 25 24 24 25 26 27 30 30 31 30 32 37 41 40 42 44 47 51 54 54 55 56 56 57 57 57 58 58 58 58
53 52 52 50 49 50 49 48 36 37 41 41 39 31 33 36 31 24 21 20 21 22 26 28 30 24 18 26 26 23 22 23 21 20 21 21 22 26 27 29 28 26 27 28 29 29 28 29 30 29 29 30 30 29 28 27 27 27 26 25 24 25 25 26 27 27 27 28 30 33 35 38 43 44 46 48 51 52 54 54 55 56 56 57 57 58 58 59
52 52 51 50 50 50 49 32 31 40 41 38 28 30 35 35 31 27 24 21 16 17 27 12 29 16 26 17 16 23 26 23 23 21 23 20 26 23 30 26 27 25 25 27 28 29 28 29 29 29 29 29 29 29 29 27 27 26 27 27 25 24 24 25 27 29 29 28 31 35 30 34 40 43 45 47 48 50 51 53 54 55 56 56 57 58 58 58
51 51 50 49 50 49 34 30 36 41 28 25 28 34 36 35 39 25 20 19 13 15 18 14 21 18 19 15 15 20 12 14 18 20 21 27 19 21 20 23 25 25 25 28 31 26 28 28 28 28 28 28 28 28 30 27 26 25 27 27 25 24 24 24 26 28 30 34 31 29 35 33 35 42 45 46 47 48 49 50 51 53 55 56 56 57 58 58
51 50 49 49 49 49 40 42 41 38 32 29 35 37 38 41 35 27 21 8 11 13 14 16 17 21 16 15 15 15 15 17 16 18 21 23 23 16 17 20 22 22 22 25 24 27 28 27 28 27 27 27 27 28 30 29 26 27 26 25 24 24 24 24 24 25 28 28 26 28 31 29 36 39 45 46 46 47 48 49 50 51 54 55 56 57 58 58
50 49 49 49 49 48 47 43 43 38 37 37 38 41 43 39 26 24 14 4 17 15 22 16 21 21 16 15 15 15 16 17 17 19 22 25 20 14 11 14 20 19 21 23 23 29 29 28 28 28 28 26 27 29 30 30 28 28 27 26 25 24 23 23 24 25 29 27 24 26 27 26 29 37 43 46 46 46 47 48 49 50 51 54 55 56 57 58
50 49 49 49 47 45 44 45 43 42 42 40 43 45 38 27 26 21 6 -0 13 9 17 17 16 15 16 13 13 15 15 16 19 20 21 22 24 21 15 24 19 19 18 21 22 27 32 36 34 28 27 28 29 29 30 31 31 30 29 27 24 24 24 26 27 28 30 25 25 25 26 25 24 31 40 44 45 46 47 48 49 50 50 52 54 55 56 58
49 49 49 48 44 45 45 37 34 37 42 45 45 36 26 29 29 17 7 9 15 13 18 16 15 17 15 13 12 16 17 17 20 21 18 20 21 28 24 14 22 21 18 17 21 23 26 31 33 30 31 30 31 29 30 31 31 30 28 27 28 28 30 29 32 32 23 21 26 25 26 25 24 28 34 44 46 46 46 47 48 49 50 51 52 54 55 57
48 48 49 47 47 49 41 35 38 43 45 46 38 24 21 17 19 16 9 19 12 14 15 14 16 16 15 14 15 17 16 17 20 20 18 18 20 27 28 26 26 19 19 17 17 27 25 26 32 34 37 30 30 29 29 30 31 31 29 28 26 26 26 24 25 23 24 23 28 24 24 23 24 26 29 38 45 46 47 47 47 48 49 50 51 53 55 56
48 48 47 47 52 48 48 45 46 46 46 44 28 23 19 17 9 20 16 16 15 16 14 18 15 16 15 14 16 18 18 17 21 21 19 18 19 25 28 27 27 25 17 18 18 24 22 29 29 30 33 35 31 29 29 28 30 31 29 28 26 24 23 23 24 22 20 26 26 23 23 21 25 25 26 35 42 46 46 47 47 48 49 50 51 52 53 55
48 47 41 44 46 46 46 49 47 46 45 36 25 21 21 17 19 25 17 17 15 18 17 15 16 15 15 15 15 19 18 19 22 21 19 17 20 25 26 27 26 25 26 24 16 21 19 22 27 30 29 33 32 30 29 29 30 30 31 28 27 26 24 23 23 21 21 24 23 21 19 22 19 26 22 32 40 44 46 47 47 48 49 50 50 51 52 54
48 42 40 44 48 45 44 42 39 42 30 25 23 23 20 17 24 18 17 16 17 17 15 16 16 15 15 16 15 20 22 19 22 21 18 18 17 27 27 26 26 25 25 23 28 26 18 19 25 31 31 32 32 32 30 27 30 31 31 30 27 26 30 24 25 20 21 21 20 20 20 23 20 31 34 23 36 42 46 46 47 47 48 49 49 50 51 53
43 39 41 44 43 35 37 38 37 35 27 23 25 23 19 21 18 19 16 18 16 16 15 15 16 14 15 14 17 18 24 21 22 20 19 19 22 28 28 27 25 26 24 22 23 26 26 18 21 30 31 30 31 32 31 26 25 28 30 29 29 26 25 26 35 29 24 21 18 28 19 19 19 18 14 23 23 35 42 44 45 46 47 48 48 49 51 52
41 41 39 42 36 36 37 38 37 34 30 25 22 21 24 25 22 18 33 16 15 16 16 13 14 13 14 13 15 18 23 23 22 20 19 20 21 29 28 28 27 27 26 23 23 29 25 26 29 29 26 29 29 32 32 28 25 26 27 29 24 26 26 25 22 24 17 15 19 20 18 17 15 17 28 17 18 20 31 40 44 45 46 47 47 48 50 52
43 40 43 45 34 36 38 38 37 32 29 27 24 33 32 23 22 17 18 17 16 16 14 15 15 15 14 15 15 18 24 23 22 20 20 20 18 30 29 28 28 28 28 26 24 27 26 27 28 28 25 22 28 26 28 29 27 24 25 25 27 22 23 24 23 19 14 14 15 18 23 20 17 21 23 16 15 14 21 31 38 42 44 46 47 48 50 52
41 41 39 36 33 36 38 39 36 29 27 23 26 27 36 21 20 19 20 18 19 18 14 16 15 18 17 16 16 17 21 22 23 20 19 21 20 26 29 29 27 29 29 27 23 24 27 30 30 29 25 28 22 25 22 22 24 26 23 25 26 22 25 22 22 25 18 19 17 12 18 13 21 15 15 13 15 14 13 25 32 37 41 44 46 47 49 51
41 35 30 34 33 37 39 39 31 26 27 20 25 26 23 17 20 18 19 21 18 17 18 15 17 17 18 20 17 17 22 23 24 24 20 21 22 28 30 30 27 29 28 27 23 24 26 34 30 30 32 30 22 21 22 22 19 20 19 20 22 24 23 22 22 17 19 23 17 16 12 19 24 26 16 14 14 15 13 19 31 35 39 42 45 47 48 50
44 38 34 32 35 39 37 30 28 27 24 27 24 23 20 22 20 22 20 21 19 21 16 17 18 18 21 20 18 18 20 21 27 26 25 22 25 25 28 30 31 29 29 26 25 25 27 31 28 30 31 29 27 25 21 20 21 19 19 19 20 19 18 17 18 19 23 19 17 15 11 23 22 24 18 15 16 14 13 13 25 36 39 41 44 46 48 50
36 27 26 33 38 38 33 29 31 31 25 28 27 28 23 30 22 24 24 24 21 17 19 18 21 20 22 21 21 20 20 20 28 28 27 27 28 27 28 31 31 31 28 26 26 26 29 30 32 29 30 30 30 30 33 33 32 28 18 17 19 18 19 18 20 19 17 16 28 23 15 16 23 22 21 19 16 14 14 13 18 32 40 43 44 46 48 50
37 33 36 40 40 37 31 30 34 34 30 30 32 29 27 23 24 27 24 25 22 22 18 21 23 22 22 22 22 20 21 22 29 29 29 28 29 29 30 32 32 30 30 27 26 27 38 33 24 25 26 28 30 32 32 32 30 26 22 18 17 17 17 17 18 21 17 19 18 17 18 16 26 35 25 19 18 15 15 15 15 30 40 44 45 46 49 51
40 40 40 42 38 36 32 30 30 30 34 34 34 31 27 24 24 23 25 27 26 23 22 21 25 25 25 23 22 22 23 22 30 29 31 31 32 32 32 32 32 31 30 27 28 32 29 32 26 24 26 24 21 25 25 26 25 24 23 19 16 17 17 20 25 25 17 15 16 17 15 15 22 45 40 38 31 23 19 16 20 30 39 43 45 46 50 52
42 42 41 40 40 35 32 33 33 32 33 33 33 30 28 26 26 26 25 25 27 26 24 22 27 26 24 26 24 24 23 28 28 31 30 29 29 33 32 31 32 30 31 33 41 35 29 29 28 23 23 20 17 17 22 32 30 28 30 30 20 16 16 18 17 20 19 26 23 17 16 20 22 26 24 23 27 28 26 20 19 27 37 43 45 47 51 53
36 30 33 35 36 35 35 35 34 34 34 34 33 32 29 28 27 29 29 27 28 28 26 27 24 23 26 24 26 23 22 29 27 31 34 30 31 34 34 32 31 31 37 42 40 32 32 31 30 28 25 25 27 29 29 30 27 25 25 25 26 26 16 16 26 21 17 27 20 20 21 19 17 14 14 14 26 22 20 24 18 26 36 43 46 49 50 53
38 31 33 32 35 34 34 34 34 35 34 35 31 31 30 30 29 30 31 27 30 29 27 28 25 24 27 27 27 24 23 23 28 26 27 27 30 33 34 34 33 34 40 36 37 31 34 29 27 30 29 28 28 28 27 29 27 26 25 25 25 28 23 16 17 16 27 22 19 28 34 17 15 15 14 15 21 30 27 23 18 25 38 44 47 50 57 52
31 34 37 38 33 32 33 33 34 35 36 34 33 34 32 30 30 30 30 32 30 30 27 31 30 30 28 26 26 25 26 26 27 26 32 32 30 31 34 34 34 37 36 33 34 30 31 27 27 27 26 28 28 28 29 28 28 27 26 25 26 29 28 15 17 22 26 18 18 29 34 25 16 14 13 13 25 27 25 22 21 26 38 44 47 49 51 52
37 38 36 38 36 35 36 35 36 36 34 34 35 35 32 31 31 31 30 30 31 30 31 27 28 29 29 29 28 25 26 23 25 29 29 30 31 31 36 34 34 37 34 34 32 32 31 29 28 29 28 28 28 28 28 28 26 26 26 26 27 29 30 21 15 25 19 26 25 27 32 22 16 15 16 20 28 28 33 41 38 34 39 45 47 49 50 51
39 38 38 41 39 38 37 35 35 34 32 35 34 33 34 33 32 33 32 31 31 32 32 30 30 30 30 29 29 25 27 28 26 25 30 30 27 34 37 36 37 40 38 34 32 31 30 28 32 28 28 27 28 29 27 24 24 29 33 35 37 31 29 24 14 26 28 29 31 22 28 27 26 36 37 39 40 39 45 42 31 32 39 45 46 48 50 51
46 47 45 40 37 37 37 36 34 34 32 33 32 34 34 33 33 35 34 35 33 32 32 31 31 31 30 29 29 29 29 29 30 28 28 27 24 35 35 38 37 34 35 35 33 31 31 30 31 29 27 26 27 25 25 26 30 31 34 37 37 40 26 16 22 37 29 27 34 34 30 25 35 37 39 38 39 40 41 42 42 34 40 46 46 48 50 50
48 49 48 43 36 38 36 35 34 33 30 33 33 33 33 33 36 37 34 37 38 36 34 33 32 30 30 30 29 28 29 28 28 27 27 27 27 27 33 34 38 36 37 37 36 32 30 30 28 28 26 26 26 26 25 32 34 33 35 36 37 45 45 46 49 49 50 49 31 29 27 36 39 43 43 51 57 58 59 56 49 47 42 46 46 48 49 50